Theta_e
287 286 286 285 284 283 282 282 282 282 282 282 282 282 283 281 281 281 280 280 280 280
286 285 285 284 283 282 282 283 282 281 281 281 281 281 281 280 279 279 279 279 279 279
285 284 284 283 282 281 281 281 281 280 280 280 280 279 279 278 279 278 278 279 278 278
284 284 283 282 281 281 280 280 280 280 280 279 279 278 278 277 277 277 276 277 276 277
284 283 282 281 281 280 280 280 279 279 279 278 278 277 277 276 276 275 276 276 276 276
282 282 281 281 280 280 279 278 278 278 277 277 277 276 276 275 276 275 275 276 276 275
281 281 281 280 280 279 279 278 277 277 276 276 276 275 276 276 275 275 276 276 276 275
281 281 281 280 280 279 278 277 277 276 275 275 275 275 275 276 275 275 275 275 276 275
282 281 281 280 279 278 277 276 276 275 275 274 275 277 277 277 276 276 275 274 275 275
282 282 281 280 278 277 276 276 275 274 274 273 274 278 278 278 276 275 274 274 274 274
282 280 280 279 277 275 275 274 273 273 273 273 273 278 278 278 275 274 274 274 274 273
281 280 279 278 276 275 274 273 272 272 271 270 271 277 278 277 273 273 273 274 274 274
281 280 278 277 275 274 272 272 273 273 270 270 267 275 277 276 273 269 272 273 275 277
279 279 278 275 271 271 269 271 268 269 268 268 269 269 275 277 274 271 270 271 272 274
Wind_Speed
8 5 6 7 7 5 5 5 6 6 6 7 6 6 6 4 4 6 5 6 5 3
8 8 8 9 7 5 6 5 6 6 6 6 6 6 6 4 4 5 3 3 3 2
7 8 8 7 8 7 6 6 6 6 6 5 5 5 6 4 3 4 2 2 4 3
7 8 7 7 7 7 7 7 7 6 5 4 4 4 4 3 3 4 3 3 3 4
9 8 8 7 7 7 7 6 7 5 5 4 4 3 3 3 2 2 2 3 3 4
8 8 8 8 8 7 7 7 6 5 4 4 4 2 2 2 1 2 2 3 3 4
9 8 8 8 8 7 7 7 6 5 5 4 3 2 2 1 2 3 3 4 4 4
8 8 8 8 8 7 7 6 6 6 5 4 3 3 3 1 3 4 5 4 4 4
10 9 9 8 7 8 7 6 6 6 5 5 3 7 6 5 3 5 5 5 4 3
11 11 10 10 9 8 8 7 7 6 6 6 5 10 10 9 4 5 5 6 5 5
12 11 10 10 9 7 7 8 6 6 6 6 6 12 12 10 4 6 7 6 6 6
12 12 11 11 11 8 7 6 6 4 7 7 5 12 12 9 3 6 8 7 7 7
11 12 13 12 11 6 5 6 6 6 6 6 5 12 12 10 3 5 6 6 7 11
10 11 10 8 5 6 5 5 4 5 4 5 6 8 14 14 6 5 5 5 5 5
Wind_Direction
110 119 118 118 112 111 115 112 97 85 83 79 73 67 70 64 57 58 45 46 33 7
117 114 116 109 109 113 111 108 102 103 93 82 78 68 77 67 60 53 54 40 35 16
116 115 119 114 115 113 114 112 109 97 92 91 85 77 82 69 56 59 27 52 18 10
127 122 118 123 125 126 122 119 113 114 112 107 100 83 83 84 82 46 12 12 19 323
137 137 130 125 124 128 133 128 129 133 141 134 123 121 116 97 57 27 350 324 312 308
144 139 138 139 140 145 142 136 140 150 155 152 153 140 135 130 286 313 291 293 295 292
153 152 148 144 154 152 154 150 155 172 166 164 152 188 210 220 293 288 279 279 280 292
154 151 146 153 159 152 150 156 172 167 165 164 191 218 155 308 281 276 272 277 281 272
157 158 158 154 156 148 155 160 172 181 181 194 204 223 217 230 245 274 278 276 270 284
164 169 166 159 156 163 173 172 184 191 190 203 211 227 230 240 246 263 266 268 275 281
168 167 160 156 168 166 176 185 181 194 200 203 216 229 231 239 239 254 260 257 255 259
170 167 164 174 180 184 174 180 185 184 192 201 213 233 237 243 237 259 262 260 257 251
169 170 179 183 181 170 168 185 187 201 196 204 209 235 244 244 221 248 261 259 259 257
173 179 180 166 155 157 151 151 176 196 201 201 198 228 248 246 231 234 251 255 260 258